Regional Weather Roundup
Issued by NWS

Home | Current Version | Previous Version | Text Only | Print | Product List | Glossary Off
Versions: 1 2 3 4 5 6 7 8 9 10 11 12 13 14 15 16 17 18 19 20 21 22 23 24 25 26 27 28 29 30 31 32 33 34 35 36 37 38 39 40 41 42 43 44 45 46 47 48 49 50

000
ASUS45 KTFX 280710
RWRMT
MONTANA REGIONAL WEATHER ROUNDUP
NATIONAL WEATHER SERVICE GREAT FALLS MT
100 AM MDT TUE JUL 28 2015

NOTE: "FAIR" INDICATES FEW OR NO CLOUDS BELOW 12000 FEET WITH NO
SIGNIFICANT WEATHER AND/OR OBSTRUCTIONS TO VISIBILITY.

MTZ001>007-043-280800-
WEST OF THE DIVIDE

CITY           SKY/WX    TMP DP  RH WIND       PRES   REMARKS
KALISPELL      CLOUDY    54  47  77 S7        30.11R
MISSOULA       CLOUDY    48  47  96 CALM      30.19R
BUTTE          CLOUDY    44  37  76 CALM      30.20R
MULLAN PASS    CLOUDY    41  38  89 SW7       30.22R
DEER LODGE       N/A     48  43  81 E6        30.21R
EUREKA           N/A     48  46  93 CALM      30.12R
HAMILTON         N/A     50  41  71 SE9       30.20R
LIBBY            N/A     48  45  87 S3        30.14R
PLAINS           N/A     52  44  74 CALM      30.15S
RONAN            N/A     50  47  89 S5        30.18R
$$

MTZ008-052>055-280800-
SOUTHWEST MONTANA

CITY           SKY/WX    TMP DP  RH WIND       PRES   REMARKS
BOZEMAN        CLOUDY    48  44  86 NE6       30.16R
DILLON         PTCLDY    43  38  82 SW14      30.21R
W YELLOWSTONE  MOCLDY    39  37  93 SW13      30.23S WCI  32
TWIN BRIDGES     N/A     46  37  70 E7        30.17S
$$

MTZ009-010-012-014-046-048-049-054-280800-
EAST SLOPES AND CENTRAL MONTANA

CITY           SKY/WX    TMP DP  RH WIND       PRES   REMARKS
CUT BANK       CLOUDY    51  45  79 NW16      30.02R
GREAT FALLS    LGT RAIN  51  48  89 N7        30.03R
MALMSTROM AFB  RAIN      51  50  93 W8        30.04R
HELENA         CLOUDY    54  40  59 W14G23    30.10R
CONRAD           N/A     52  51  96 W10       30.04R
$$

MTZ011-013-016-021-045-047-050-051-280800-
NORTH CENTRAL MONTANA

CITY           SKY/WX    TMP DP  RH WIND       PRES   REMARKS
HAVRE          RAIN      55  54  96 W18       29.85R
LEWISTOWN      LGT RAIN  50  45  83 W21G30    29.98S
CHINOOK          N/A     55  55 100 W15G22    29.80S
FORT BENTON      N/A     54  52  94 SW10      29.98S
$$

MTZ017>020-022>027-061-062-280800-
NORTHEAST MONTANA

CITY           SKY/WX    TMP DP  RH WIND       PRES   REMARKS
GLASGOW        CLOUDY    57  54  89 W18       29.66S
SIDNEY         MOCLDY    63  57  82 S13       29.66R
WOLF POINT     CLOUDY    60  56  86 W17G26    29.64R
PLENTYWOOD       N/A     63  61  94 W5        29.50F
POPLAR           N/A     61  57  88 SW15G24   29.63R
SCOBEY           N/A     59  54  83 W9        29.58F
$$

MTZ028>42-056>058-280800-
SOUTHCENTRAL AND SOUTHEAST MONTANA

CITY           SKY/WX    TMP DP  RH WIND       PRES   REMARKS
BAKER          MOCLDY    56  54  93 W17G23    29.80F
BILLINGS       PTCLDY    54  42  64 W21G30    29.99S
LIVINGSTON     CLOUDY    51  39  63 W24G35    30.10R
MILES CITY     CLOUDY    56  56 100 W13G25    29.84R
EKALAKA          N/A     53  49  86 W14       29.85S
FORSYTH          N/A     55  48  76 W17G23    29.86S
LAUREL           N/A     55  41  59 W20       29.98S
ROUNDUP          N/A     54  44  68 W15       29.86S
$$

REGIONAL REPORTS...DAKOTAS

CITY           SKY/WX    TMP DP  RH WIND       PRES   REMARKS
WILLISTON      MOCLDY    63  60  90 S10       29.59R
MINOT          CLOUDY    73  59  61 SW17      29.52F
DICKINSON      MOCLDY    60  56  86 W20       29.68F
BEACH          CLOUDY    57  57 100 SW17G25   29.76F FOG
CROSBY         FAIR      63  63 100 S16G26    29.48F
BISMARCK       CLOUDY    70  62  76 NW7       29.62R
GRAND FORKS    PTCLDY    73  70  90 SE10      29.68F
FARGO          CLEAR     78  71  79 SE18      29.69F
BUFFALO SD       N/A     59  52  77 W28G39    29.77R
RAPID CITY     CLEAR     61  52  72 NW18      29.85R
$$

REGIONAL REPORTS...WYOMING/IDAHO/WASHINGTON

CITY           SKY/WX    TMP DP  RH WIND       PRES   REMARKS
GILLETTE       CLEAR     49  45  86 W8        29.97R
SHERIDAN       CLEAR     51  45  79 W6        29.99R
BUFFALO WY     PTCLDY    49  44  83 CALM      30.01S
CODY           CLEAR     54  30  40 W8        30.07R
YELLOWSTONE LA   N/A     34  31  88 VRB5      30.27R
IDAHO FALLS    PTCLDY    45  44  97 NW3       30.22R
SALMON         MOCLDY    48  41  76 CALM      30.25R
BOISE          CLEAR     57  37  47 SW6       30.17R
SPOKANE        PTCLDY    60  41  49 SW7       30.11R
$$

REGIONAL REPORTS...ALBERTA

CITY           SKY/WX    TMP DP  RH WIND       PRES   REMARKS
EDMONTON       CLEAR     57  45  62 W7        29.90S
CALGARY        PTCLDY    54  41  62 NW5       30.02R
LETHBRIDGE     CLOUDY    55  46  71 W20G25    30.00R
MEDICINE HAT   CLOUDY    57  54  88 NW14      29.86R
WATERTON GATE    N/A     50  45  81 SW12        N/A
CARDSTON         N/A     54  43  66 W8          N/A
MILK RIVER       N/A     54  46  76 NW17G24     N/A
ONEFOUR          N/A     54  52  94 NW22G29     N/A
$$

REGIONAL REPORTS...SASKATCHEWAN

CITY           SKY/WX    TMP DP  RH WIND       PRES   REMARKS
SWIFT CURRENT  RAIN      55 N/A N/A N22G31    29.65F
REGINA         LGT RAIN  61  59  94 NE16G24   29.51F
SASKATOON      LGT RAIN  59  57  94 N12       29.77F
CYPRESS HILLS    N/A     52  48  87 N15G23      N/A
VAL MARIE        N/A     57  55  94 NW12        N/A
ROCKGLEN         N/A     57  55  94 W9          N/A
$$


USA.gov is the U.S. government's official web portal to all federal, state and local government web resources and services.